Regional Weather Roundup
Issued by NWS

Home | Current Version | Previous Version | Graphics & Text | Print | Product List | Glossary On
Versions: 1 2 3 4 5 6 7 8 9 10 11 12 13 14 15 16 17 18 19 20 21 22 23 24 25 26 27 28 29 30 31 32 33 34 35 36 37 38 39 40 41 42 43 44 45 46 47 48 49 50
000
ASUS43 KTOP 101859
RWRKS

WEATHER ROUNDUP FOR KANSAS
NATIONAL WEATHER SERVICE GOODLAND KS
100 PM CST SAT DEC 10 2016

NOTE:  "FAIR" INDICATES FEW OR NO CLOUDS BELOW 12,000 FEET WITH NO
SIGNIFICANT WEATHER AND/OR OBSTRUCTIONS TO VISIBILITY.

KSZ001>006-013>018-027>032-041>047-102000-
NORTHWEST KANSAS

CITY           SKY/WX    TMP DP  RH WIND       PRES   REMARKS
GOODLAND       CLOUDY    35  26  69 S13       29.85F WCI  26
HAYS           CLOUDY    37  22  54 S17       30.03F WCI  27
HILL CITY      CLOUDY    36  22  56 S13       29.99F WCI  27
RUSSELL        CLOUDY    38  21  50 S20       30.03F WCI  28
$$

KSZ061>065-074>080-084>089-102000-
SOUTHWEST KANSAS

CITY           SKY/WX    TMP DP  RH WIND       PRES   REMARKS
DODGE CITY     CLOUDY    40  25  55 S20       29.99F WCI  30
ELKHART          N/A     48  29  48 SE10        N/A
GARDEN CITY    CLOUDY    38  24  57 S12G18    29.95F WCI  30
GREAT BEND     SUNNY     39  22  50 S17G24    30.06F WCI  30
LIBERAL        CLOUDY    43  28  56 S13       29.96F
$$

KSZ066>073-081>083-090>101-102000-
SOUTHEAST KANSAS

CITY           SKY/WX    TMP DP  RH WIND       PRES   REMARKS
CHANUTE        CLOUDY    42  19  39 S14       30.24F
COFFEYVILLE    CLOUDY    41  20  43 S15       30.27F
HUTCHINSON     PTSUNNY   41  22  46 S20G26    30.11F
MEDICINE LODGE   N/A     40  23  50 S20G25    30.08F WCI  30
NEWTON         CLOUDY    40  21  46 S20       30.12F WCI  30
PARSONS        CLOUDY    42  19  39 S12G24    30.25F
WICHITA INTL   PTSUNNY   42  22  44 S23G30    30.14F
WICHITA JABRA  CLOUDY    40  21  46 S21G26    30.14F WCI  30
WINFIELD       CLOUDY    44  20  38 S20G30    30.19F
$$

KSZ007>012-019>026-033>040-048>060-102>105-102000-
NORTHEAST KANSAS

CITY           SKY/WX    TMP DP  RH WIND       PRES   REMARKS
CONCORDIA      CLOUDY    35  19  52 SE17      30.11F WCI  25
EMPORIA        CLOUDY    36  21  54 SE13      30.18F WCI  27
LAWRENCE       CLOUDY    34  22  61 SE9       30.26F
MANHATTAN      CLOUDY    38  19  46 S10       30.17F WCI  31
OLATHE IND     CLOUDY    34  20  56 SE13      30.26F WCI  25
OLATHE EXE     CLOUDY    33  19  56 SE12      30.27F WCI  24
SALINA         CLOUDY    42  22  44 S18       30.14F
TOPEKA BILLARD CLOUDY    35  20  54 SE8       30.25F
TOPEKA FORBES  CLOUDY    35  20  54 SE9       30.24F
$$




USA.gov is the U.S. government's official web portal to all federal, state and local government web resources and services.